#timestamp,LO_Frequency,Hit,StdDev 
1629025215.3,286047000.6,N
1629025235.1,286046998.2,N
1629025255.9,286046995.2,N
1629025275.7,286046994.2,N
1629025295.6,286046990.7,N
1629025315.4,286046989.3,N
1629025335.2,286046987.2,N
1629025355.1,286046986.8,N
1629025356.0,286046986.8,N
1629025375.8,286046983.8,Y
1629025395.7,286046992.3,P
1629025415.5,286046994.5,P
1629025435.3,286046994.0,P
1629025455.2,286046990.8,Y
1629025475.0,286046993.9,P
1629025475.9,286046993.9,P
1629025495.7,286046992.1,P
1629025515.6,286046992.6,Y
1629025535.4,286046997.1,P
1629025555.3,286046999.6,N
1629025575.1,286046998.3,N
1629025595.8,286046997.5,N
1629025615.7,286046993.3,Y
1629025635.5,286046997.8,P
1629025655.4,286046993.6,P
1629025675.2,286046993.9,P
1629025695.0,286046990.2,Y
1629025695.9,286046990.2,P
1629025715.8,286046993.7,N
1629025735.6,286046993.3,P
1629025755.5,286046994.4,N
1629025775.3,286046992.5,Y
1629025795.1,286047001.2,P
1629025815.9,286047000.6,N
1629025835.7,286047002.2,N
1629025855.5,286047002.3,N
1629025875.4,286047001.5,N
1629025895.2,286047004.4,N
1629025915.1,286047004.2,N
1629025916.0,286047004.2,N
1629025935.8,286047000.4,N
1629025955.6,286047002.4,N
1629025975.5,286047004.4,N
1629025995.3,286047003.5,N
1629026015.1,286047000.1,N
1629026035.9,286046999.8,N
1629026055.7,286047001.2,N
1629026075.6,286046998.9,N
1629026095.4,286046997.0,N
1629026115.2,286046997.0,N
1629026135.1,286046994.9,N
1629026136.0,286046994.9,N
1629026155.8,286046996.8,N
1629026175.6,286046998.7,N
1629026195.5,286047000.5,N
1629026215.3,286047001.6,N
1629026235.2,286047005.8,N
1629026255.9,286047003.9,N
1629026275.7,286047002.7,N
1629026295.6,286047000.7,N
1629026315.4,286046999.1,N
1629026335.2,286046994.9,N
1629026355.1,286046998.0,N
1629026356.0,286046998.0,N
1629026375.8,286046993.5,N
1629026395.7,286046994.0,N
1629026415.5,286046994.2,N
1629026435.3,286046994.2,N
1629026455.2,286046994.6,N
1629026475.0,286046989.2,Y
1629026475.9,286046989.2,P
1629026495.8,286046989.3,N
1629026515.6,286046988.7,N
1629026535.4,286046987.7,N
1629026555.3,286046987.3,Y
1629026575.1,286046993.9,P
1629026595.8,286046989.9,P
1629026615.7,286046991.7,P
1629026635.5,286046991.9,Y
1629026685.4,286047022.9,E
1629026695.3,286047018.5,N
1629026715.1,286047011.2,P
1629026735.9,286047006.7,N
1629026755.7,286047011.7,N
1629026775.5,286047019.6,Y
1629026795.4,286047008.0,P
1629026815.2,286047003.4,N
1629026835.1,286047003.0,N
1629026836.0,286047003.0,N
1629026855.8,286046996.7,N
1629026875.6,286047000.5,N
1629026895.5,286047010.8,N
1629026915.3,286047010.8,N
1629026935.1,286047010.3,N
1629026955.9,286047009.2,N
1629026975.7,286047005.3,N
1629026995.6,286047001.6,N
1629027015.4,286047001.9,N
1629027035.2,286047000.5,N
1629027055.1,286046999.1,N
1629027056.0,286046999.1,N
1629027075.8,286046996.8,N
1629027095.6,286046993.9,N
1629027115.5,286046994.0,N
1629027135.3,286046995.7,N
1629027155.2,286046995.9,N
1629027175.9,286046994.0,N
1629027195.7,286046991.4,N
1629027215.6,286046989.1,N
1629027235.4,286046981.6,N
1629027255.2,286046983.3,N
1629027275.1,286046981.4,N
1629027276.0,286046981.4,N
1629027325.9,286046983.6,E
1629027335.8,286046989.3,N
1629027355.6,286047000.2,P
1629027375.5,286047000.8,N
1629027395.3,286046997.2,N
1629027415.1,286046995.6,N
1629027435.9,286046996.3,N
1629027455.7,286046993.6,N
1629027475.5,286046993.6,N
1629027495.4,286046990.6,N
1629027515.2,286046990.6,N
1629027535.0,286046991.1,N
1629027536.0,286046991.1,N
1629027555.8,286046990.3,N
1629027575.6,286046994.3,N
1629027595.5,286046995.3,N
1629027615.3,286046996.2,N
1629027635.1,286046995.8,N
1629027655.9,286046995.6,N
1629027675.7,286046994.3,N
1629027695.5,286046994.2,N
1629027715.4,286046993.2,N
1629027735.2,286046992.8,N
1629027755.1,286046992.9,N
1629027756.0,286046992.9,N
1629027775.8,286046991.0,Y
1629027795.6,286046994.9,P
1629027815.5,286046994.1,P
1629027835.3,286046992.0,P
1629027855.2,286046992.8,Y
1629027875.9,286046995.4,P
1629027895.7,286046994.2,P
1629027915.6,286046990.8,P
1629027935.4,286046988.6,Y
1629027955.3,286046997.8,P
1629027975.1,286046997.7,N
1629027976.0,286046997.7,N
1629027995.8,286046995.0,N
1629028015.7,286046993.3,Y
1629028035.5,286046999.4,P
1629028055.4,286047000.0,N
1629028075.2,286046996.6,N
1629028095.0,286046998.1,N
1629028095.9,286046998.1,N
1629028115.8,286047001.2,N
1629028135.6,286046997.8,N
1629028155.5,286046994.0,Y
1629028175.3,286046996.9,P
1629028195.1,286046995.1,P
1629028215.9,286046995.7,P
1629028235.7,286046995.1,Y
1629028255.6,286046998.5,P
1629028275.4,286046998.8,N
1629028295.2,286046994.9,P
1629028315.1,286046993.4,Y
1629028316.0,286046993.4,P
1629028335.8,286046997.3,N
1629028355.6,286046997.6,N
1629028375.5,286046997.8,N
1629028395.3,286046993.4,Y
1629028415.2,286046997.7,P
1629028435.0,286046999.3,N
1629028435.9,286046999.3,N
1629028455.7,286046997.7,N
1629028475.6,286046998.3,N
1629028495.4,286047000.9,N
1629028515.3,286046998.5,N
1629028535.1,286047000.5,N
1629028536.0,286047000.5,N
1629028555.8,286046999.4,N
1629028575.7,286046999.1,N
1629028595.5,286046997.0,N
1629028615.3,286046998.9,N
1629028635.2,286046998.8,N
1629028655.0,286046998.8,N
1629028655.9,286046998.8,N
1629028675.8,286046999.5,N
1629028695.6,286046996.6,Y
1629028715.4,286046997.2,P
1629028735.3,286046997.5,P
1629028755.1,286046997.1,P
1629028775.9,286046998.3,N
1629028795.7,286047000.2,N
